User: anonymous
Location: Caltech
(34.1382°N, 118.1253°W)
Time: 10:34:48
(UTC-07:00)
Language:

OPAL - Orbit

View from above orbital plane
View from above orbital plane
View from above satellite
View from above satellite

Ground track
Ground track

The orbit data is extracted from the following two-line orbital elements,

1 26063U 00004C   14211.41659425  .00000055  00000-0  38786-4 0   218
2 26063 100.2180 005.4324 0036873 037.3335 323.0397 14.36381635760235
Epoch (UTC): 30 July 2014 09:59:53
Eccentricity: 0.0036873
inclination: 100.2180°
perigee height: 744 km
apogee height: 797 km
right ascension of ascending node: 5.4324°
argument of perigee: 37.3335°
revolutions per day: 14.36381635
mean anomaly at epoch: 323.0397°
orbit number at epoch: 76023

The dashed part of the orbit path shows where the satellite is in the earth's shadow,  

DLR